Location: ??
(34.7252°N, 135.5457°E)
Time: 08:43:55
(UTC+00:00)

IRIDIUM 114 - Pass Details

Date: 24 September 2020
Orbit: 776 x 779 km, 86.4° (Epoch: 28 October)

Event Time Altitude Azimuth Distance (km) Brightness Sun altitude
Rises 18:54:44 0° 352° (N) 3,264 7.7 -23.8°
Reaches altitude 10° 18:57:08 10° 348° (NNW) 2,332 6.8 -23.3°
Maximum altitude 19:02:12 54° 272° (W) 938 4.3 -22.3°
Enters shadow 19:02:36 53° 254° (WSW) 953 4.3 -22.2°
